�������C�����ː����j�^�v���󋵏��
Date,Time,Cs137(Bq/L),Cs134(Bq/L),�S��(Bq/L)
2024/07/11,00:00,ND,ND,17
2024/07/11,00:10,ND,ND,16
2024/07/11,00:20,ND,ND,16
2024/07/11,00:30,ND,ND,13
2024/07/11,00:40,ND,ND,12
2024/07/11,00:50,ND,ND,13
2024/07/11,01:00,ND,ND,13
2024/07/11,01:10,ND,ND,14
2024/07/11,01:20,ND,ND,15
2024/07/11,01:30,ND,ND,16
2024/07/11,01:40,ND,ND,16
2024/07/11,01:50,ND,ND,16
2024/07/11,02:00,ND,ND,17
2024/07/11,02:10,ND,ND,19
2024/07/11,02:20,ND,ND,18
2024/07/11,02:30,ND,ND,20
2024/07/11,02:40,ND,ND,20
2024/07/11,02:50,ND,ND,20
2024/07/11,03:00,ND,ND,17
2024/07/11,03:10,ND,ND,16
2024/07/11,03:20,ND,ND,16
2024/07/11,03:30,ND,ND,14
2024/07/11,03:40,ND,ND,15
2024/07/11,03:50,ND,ND,15
2024/07/11,04:00,ND,ND,17
2024/07/11,04:10,ND,ND,18
2024/07/11,04:20,ND,ND,17
2024/07/11,04:30,ND,ND,20
2024/07/11,04:40,ND,ND,18
2024/07/11,04:50,ND,ND,17
2024/07/11,05:00,ND,ND,16
2024/07/11,05:10,ND,ND,16
2024/07/11,05:20,ND,ND,18
2024/07/11,05:30,0.056,ND,18
2024/07/11,05:40,ND,ND,20
2024/07/11,05:50,ND,ND,20
2024/07/11,06:00,ND,ND,18
2024/07/11,06:10,ND,ND,19
2024/07/11,06:20,ND,ND,17
2024/07/11,06:30,ND,ND,17
2024/07/11,06:40,ND,ND,16
2024/07/11,06:50,ND,ND,16
2024/07/11,07:00,ND,ND,16
2024/07/11,07:10,ND,ND,12
2024/07/11,07:20,ND,ND,13
2024/07/11,07:30,ND,ND,14
2024/07/11,07:40,ND,ND,14
2024/07/11,07:50,ND,ND,13
2024/07/11,08:00,ND,ND,12
2024/07/11,08:10,ND,ND,12
2024/07/11,08:20,ND,ND,10
2024/07/11,08:30,ND,ND,12
2024/07/11,08:40,ND,ND,11
2024/07/11,08:50,ND,ND,14
2024/07/11,09:00,ND,ND,15
2024/07/11,09:10,ND,ND,13
2024/07/11,09:20,ND,ND,15
2024/07/11,09:30,ND,ND,11
2024/07/11,09:40,ND,ND,12
2024/07/11,09:50,ND,ND,9.7
2024/07/11,10:00,ND,ND,9.9
2024/07/11,10:10,ND,ND,11
2024/07/11,10:20,ND,ND,9.5
2024/07/11,10:30,ND,ND,11
2024/07/11,10:40,ND,ND,11
2024/07/11,10:50,ND,ND,12
2024/07/11,11:00,ND,ND,12
2024/07/11,11:10,ND,ND,12
2024/07/11,11:20,ND,ND,14
2024/07/11,11:30,ND,ND,13
2024/07/11,11:40,ND,ND,12
2024/07/11,11:50,ND,ND,10
2024/07/11,12:00,ND,ND,11
2024/07/11,12:10,ND,ND,10
2024/07/11,12:20,ND,ND,9.7
2024/07/11,12:30,ND,ND,10
2024/07/11,12:40,ND,ND,11
2024/07/11,12:50,ND,ND,14
2024/07/11,13:00,ND,ND,14
2024/07/11,13:10,ND,ND,15
2024/07/11,13:20,ND,ND,17
2024/07/11,13:30,ND,ND,18
2024/07/11,13:40,ND,ND,18
2024/07/11,13:50,ND,ND,17
2024/07/11,14:00,ND,ND,18
2024/07/11,14:10,ND,ND,18
2024/07/11,14:20,ND,ND,18
2024/07/11,14:30,ND,ND,16
2024/07/11,14:40,ND,ND,17
2024/07/11,14:50,ND,ND,17
2024/07/11,15:00,ND,ND,17
2024/07/11,15:10,ND,ND,16
2024/07/11,15:20,ND,ND,14
2024/07/11,15:30,ND,ND,15
2024/07/11,15:40,ND,ND,16
2024/07/11,15:50,ND,ND,19
2024/07/11,16:00,ND,ND,17
2024/07/11,16:10,ND,ND,18
2024/07/11,16:20,ND,ND,19
2024/07/11,16:30,ND,ND,19
2024/07/11,16:40,ND,ND,18
2024/07/11,16:50,ND,ND,14
2024/07/11,17:00,ND,ND,14
2024/07/11,17:10,ND,ND,13
2024/07/11,17:20,ND,ND,13
2024/07/11,17:30,ND,ND,12
2024/07/11,17:40,ND,ND,14
2024/07/11,17:50,ND,ND,14
2024/07/11,18:00,ND,ND,15
2024/07/11,18:10,ND,ND,15
2024/07/11,18:20,ND,ND,14
2024/07/11,18:30,ND,ND,13
2024/07/11,18:40,0.065,ND,12
2024/07/11,18:50,0.051,ND,14
2024/07/11,19:00,ND,ND,14
2024/07/11,19:10,ND,ND,14
2024/07/11,19:20,ND,ND,13
2024/07/11,19:30,ND,ND,15
2024/07/11,19:40,ND,ND,11
2024/07/11,19:50,ND,ND,11
2024/07/11,20:00,ND,ND,12
2024/07/11,20:10,ND,ND,14
2024/07/11,20:20,ND,ND,15
2024/07/11,20:30,ND,ND,15
2024/07/11,20:40,ND,ND,16
2024/07/11,20:50,ND,ND,15
2024/07/11,21:00,ND,ND,15
2024/07/11,21:10,ND,ND,14
2024/07/11,21:20,ND,ND,12
2024/07/11,21:30,0.068,ND,10
2024/07/11,21:40,0.071,ND,12
2024/07/11,21:50,0.082,ND,12
2024/07/11,22:00,0.089,ND,11
2024/07/11,22:10,0.086,ND,9.2
2024/07/11,22:20,0.070,ND,11
2024/07/11,22:30,ND,ND,9.9
2024/07/11,22:40,ND,ND,9.6
2024/07/11,22:50,0.076,ND,ND
2024/07/11,23:00,0.056,ND,9.2
2024/07/11,23:10,ND,ND,9.0
2024/07/11,23:20,0.050,ND,11
2024/07/11,23:30,0.055,ND,14
2024/07/11,23:40,0.049,ND,15
2024/07/11,23:50,ND,ND,16
